OV1-5 DEB, 5361

Orbit data source: Space-Track

OV1-5 DEB, 5361 is space debris in LEO originally from a launch on Wed, 30 Mar 1966 UTC launched from the Air Force Western Test Range (AFWTR). Debris objects in space refer to the collection of defunct objects orbiting the Earth. Examples of debris include non-operational satellites, rocket bodies, and fragments generated from explosions, collisions, or faulty payload assembly.

Loading next visibility...
Identifier
5361, 1966-025F
Orbit
LEO
Country
Flag of USUS
Related business
Flag of USAir Force Systems Command (OAR legacy assets) (US)
Manufacturer
Unknown
Mission
Spacecraft
Bus & Motor
Unknown
Mass
Unknown
Launch date (UTC)
1966-03-30 (60 years ago)
Launch vehicle
Unknown
Launch site
Air Force Western Test Range (AFWTR)
Object type
Payload
Rocket body
Debris
Shape & HBR
Unknown shape, 0.1 m
Radar Cross Section
Small (<0.1 m²)

Expand to show TLE details & history
Last TLE update: 21 hours ago

TLE from 21 hours ago
0 OV1-5 DEB
1 05361U 66025F   25295.24583153  .00014303  00000-0  34462-2 0  9990
2 05361 144.6141  67.4531 0022885  99.8832 260.4451 14.51037861334185
Epoch: 2025-10-22T05:53Z
TLE epoch observation values (Epoch: 2025-10-22T05:53:59.844Z)
Latitude
0.00001°
Longitude
-51.96846°
Altitude
723.974 km
Speed
7.494 km/s
True Right ascension
04h 29m 48s
True Declination
0° 00' 00"
Sunlit
Object was in full shadow at epoch
Visualization orbit readout
Latitude
Unknown
Longitude
Unknown
Altitude
Unknown
Speed
Unknown
Apparent Right ascension
Unknown
Apparent Declination
Unknown
Sunlit
N/A
Visualization observer readout
Local Sidereal Time
21:45:21
Azimuth
Unknown
Elevation
Unknown
Doppler factor
Unknown
Orbital elements
Apogee altitude
741.605 km
Perigee altitude
709.093 km
Semi-major axis
7,103.486 km
Eccentricity
0.00229
Inclination
144.6141°
RAAN
67.4531°
Arg. of periapsis
99.8832°
True anomaly
260.18662°
Mean anomaly
260.4451°
Eccentric anomaly
260.31585°
Mean motion
3.62523 °/min
Orbital period
99.3 mins
BSTAR
0.0034462
Loading maneuver chart data...
Computing Atmospheric mass density...
Loading historical data...
Loading historical data...
Loading historical data...
Loading historical data...
Loading historical data...
Loading historical data...
Loading historical data...

Documentation

Showing up to 5 results
|